Location: Sungai Apap
(2.6167°N, 113.3833°E)
Time: 14:35:58
(UTC+00:00)

Fermi - Pass Details

Date: 25 May 2024
Orbit: 508 x 522 km, 25.6° (Epoch: 12 June)

Event Time Altitude Azimuth Distance (km) Brightness Sun altitude
Rises 12:01:31 0° 298° (WNW) 2,589 8.8 -21.7°
Reaches altitude 10° 12:03:45 10° 298° (WNW) 1,707 7.5 -22.2°
Enters shadow 12:07:26 77° 314° (NW) 521 3.7 -23.1°
